Latest Coastal Weather Observations for Aireys Inlet

IDV60701

Issued at 7:35 pm EDT Friday 28 November 2014 (issued every 10 minutes, with the page automatically refreshed every 10 minutes)

About coastal observations | Map of coastal stations | Coastal observations for VIC | Marine services | Other Formats
Station Details ID: 090180 Name: AIREYS INLET Lat: -38.46 Lon: 144.09 Height: 95.0 m
Data from the previous 72 hours. | See also: Recent months at Aireys Inlet
Date/Time
EDT
Temp

°C
Wind Pressure Rain
since 9am
mm
Weather Cloud Vis
km
Sea
Height
m
Swell
Dir
 
Speed
knots
Gust
knots
hPa Trend Height
m
Period
s
Dir
28/07:30pm 13.8 S 8 13 - - 0.0 - - - - - - -
28/07:00pm 14.5 S 9 13 - - 0.0 - - - - - - -
28/06:30pm 16.2 S 8 13 - - 0.0 - - - - - - -
28/06:00pm 16.2 S 8 13 - - 0.0 - - - - - - -
28/05:30pm 17.6 S 8 12 - - 0.0 - - - - - - -
28/05:00pm 16.4 S 8 11 - - 0.0 - - - - - - -
28/04:30pm 17.2 S 9 12 - - 0.0 - - - - - - -
28/04:00pm 16.6 S 8 11 - - 0.0 - - - - - - -
28/03:30pm 17.7 S 8 12 - - 0.0 - - - - - - -
28/03:00pm 16.7 S 7 11 - - 0.0 - - - - - - -
28/02:30pm 16.6 S 6 10 - - 0.0 - - - - - - -
28/02:00pm 16.0 S 8 11 - - 0.0 - - - - - - -
28/01:30pm 16.8 S 7 11 - - 0.0 - - - - - - -
28/01:00pm 16.6 S 7 11 - - 0.0 - - - - - - -
28/12:30pm 16.5 S 6 10 - - 0.0 - - - - - - -
28/12:00pm 16.4 SSW 8 13 - - 0.0 - - - - - - -
28/11:30am 16.1 S 7 11 - - 0.0 - - - - - - -
28/11:00am 15.7 S 6 9 - - 0.0 - - - - - - -
28/10:30am 14.9 S 5 9 - - 0.0 - - - - - - -
28/10:00am 15.0 S 6 9 - - 0.0 - - - - - - -
28/09:30am 14.3 SSW 6 9 - - 0.0 - - - - - - -
28/09:00am 13.7 S 6 10 - - 0.0 - - - - - - -
28/08:30am 13.2 S 6 12 - - 0.0 - - - - - - -
28/08:00am 13.4 S 8 11 - - 0.0 - - - - - - -
28/07:30am 13.2 S 7 11 - - 0.0 - - - - - - -
28/07:00am 12.3 S 7 10 - - 0.0 - - - - - - -
28/06:30am 12.0 S 9 13 - - 0.0 - - - - - - -
28/06:00am 11.9 S 8 13 - - 0.0 - - - - - - -
28/05:30am 11.8 S 9 12 - - 0.0 - - - - - - -
28/05:00am 11.8 SSW 9 13 - - 0.0 - - - - - - -
28/04:30am 11.6 S 8 12 - - 0.0 - - - - - - -
28/04:00am 11.7 S 8 13 - - 0.0 - - - - - - -
28/03:30am 11.8 S 9 14 - - 0.0 - - - - - - -
28/03:00am 11.9 S 7 11 - - 0.0 - - - - - - -
28/02:30am 11.7 S 8 11 - - 0.0 - - - - - - -
28/02:00am 11.7 S 6 10 - - 0.0 - - - - - - -
28/01:30am 11.4 S 4 6 - - 0.0 - - - - - - -
28/01:00am 11.5 SSE 5 8 - - 0.0 - - - - - - -
28/12:30am 11.8 S 5 9 - - 0.0 - - - - - - -
28/12:00am 11.7 S 7 10 - - 0.0 - - - - - - -
 
Date/Time
EDT
Temp

°C
Wind Pressure Rain
since 9am
mm
Weather Cloud Vis
km
Sea
Height
m
Swell
Dir
 
Speed
knots
Gust
knots
hPa Trend Height
m
Period
s
Dir
27/11:30pm 11.9 S 7 11 - - 0.0 - - - - - - -
27/11:00pm 12.0 SSE 6 10 - - 0.0 - - - - - - -
27/10:30pm 12.2 S 6 10 - - 0.0 - - - - - - -
27/10:00pm 12.1 S 7 12 - - 0.0 - - - - - - -
27/09:30pm 12.2 S 8 11 - - 0.0 - - - - - - -
27/09:00pm 12.2 SSW 8 12 - - 0.0 - - - - - - -
27/08:30pm 11.9 S 9 12 - - 0.0 - - - - - - -
27/08:00pm 12.6 S 7 12 - - 0.0 - - - - - - -
27/07:30pm 13.1 S 7 11 - - 0.0 - - - - - - -
27/07:00pm 15.8 S 7 12 - - 0.0 - - - - - - -
27/06:30pm 15.4 S 8 13 - - 0.0 - - - - - - -
27/06:00pm 16.3 S 10 14 - - 0.0 - - - - - - -
27/05:30pm 15.9 S 9 13 - - 0.0 - - - - - - -
27/05:00pm 16.5 S 8 12 - - 0.0 - - - - - - -
27/04:30pm 16.0 S 8 11 - - 0.0 - - - - - - -
27/04:00pm 16.3 S 7 13 - - 0.0 - - - - - - -
27/03:30pm 15.9 S 9 12 - - 0.0 - - - - - - -
27/03:00pm 17.3 S 8 13 - - 0.0 - - - - - - -
27/02:30pm 15.9 S 9 13 - - 0.0 - - - - - - -
27/02:00pm 15.9 S 9 12 - - 0.0 - - - - - - -
27/01:30pm 15.5 S 9 13 - - 0.0 - - - - - - -
27/01:00pm 15.9 S 9 14 - - 0.0 - - - - - - -
27/12:30pm 16.0 S 9 14 - - 0.0 - - - - - - -
27/12:00pm 16.0 SSW 9 14 - - 0.0 - - - - - - -
27/11:30am 15.9 S 7 12 - - 0.0 - - - - - - -
27/11:00am 14.5 S 9 13 - - 0.0 - - - - - - -
27/10:30am 15.4 S 9 12 - - 0.0 - - - - - - -
27/10:00am 14.6 S 7 12 - - 0.0 - - - - - - -
27/09:30am 14.2 S 7 11 - - 0.0 - - - - - - -
27/09:00am 13.4 S 6 9 - - 0.4 - - - - - - -
27/08:30am 12.9 S 5 8 - - 0.4 - - - - - - -
27/08:00am 12.6 S 7 12 - - 0.4 - - - - - - -
27/07:30am 12.0 S 7 10 - - 0.4 - - - - - - -
27/07:00am 11.8 S 6 9 - - 0.4 - - - - - - -
27/06:30am 11.6 S 8 13 - - 0.4 - - - - - - -
27/06:00am 11.4 SSE 6 11 - - 0.4 - - - - - - -
27/05:30am 11.1 S 8 11 - - 0.4 - - - - - - -
27/05:00am 11.5 S 8 13 - - 0.4 - - - - - - -
27/04:30am 11.7 S 8 13 - - 0.4 - - - - - - -
27/04:00am 11.8 SSE 9 14 - - 0.4 - - - - - - -
27/03:30am 11.9 S 8 14 - - 0.4 - - - - - - -
27/03:00am 12.0 S 8 13 - - 0.4 - - - - - - -
27/02:30am 12.2 SSE 8 13 - - 0.4 - - - - - - -
27/02:00am 12.0 S 10 15 - - 0.4 - - - - - - -
27/01:30am 12.5 S 7 13 - - 0.4 - - - - - - -
27/01:00am 12.4 SSW 8 13 - - 0.4 - - - - - - -
27/12:30am 12.6 S 9 15 - - 0.4 - - - - - - -
27/12:00am 12.6 S 8 13 - - 0.4 - - - - - - -
 
Date/Time
EDT
Temp

°C
Wind Pressure Rain
since 9am
mm
Weather Cloud Vis
km
Sea
Height
m
Swell
Dir
 
Speed
knots
Gust
knots
hPa Trend Height
m
Period
s
Dir
26/11:30pm 12.6 SSW 9 16 - - 0.4 - - - - - - -
26/11:00pm 12.6 S 10 18 - - 0.4 - - - - - - -
26/10:30pm 12.5 SSW 11 16 - - 0.4 - - - - - - -
26/10:00pm 12.6 SSW 11 17 - - 0.4 - - - - - - -
26/09:30pm 12.8 SSW 12 18 - - 0.4 - - - - - - -
26/09:00pm 13.0 SSW 11 16 - - 0.4 - - - - - - -
26/08:30pm 13.1 SSW 11 18 - - 0.4 - - - - - - -
26/08:00pm 13.4 SSW 11 17 - - 0.4 - - - - - - -
26/07:30pm 13.6 SSW 11 17 - - 0.4 - - - - - - -
26/07:00pm 14.1 SSW 10 17 - - 0.4 - - - - - - -
26/06:30pm 15.1 SSW 12 17 - - 0.4 - - - - - - -
26/06:00pm 15.2 SSW 12 20 - - 0.4 - - - - - - -
26/05:30pm 14.9 SSW 13 22 - - 0.4 - - - - - - -
26/05:00pm 15.1 SSW 14 20 - - 0.4 - - - - - - -
26/04:30pm 15.1 SSW 14 21 - - 0.4 - - - - - - -
26/04:00pm 15.6 SSW 13 20 - - 0.4 - - - - - - -
26/03:30pm 15.4 SSW 12 18 - - 0.4 - - - - - - -
26/03:00pm 15.1 S 12 18 - - 0.4 - - - - - - -
26/02:30pm 14.6 SSW 10 17 - - 0.4 - - - - - - -
26/02:00pm 13.9 SSW 11 16 - - 0.4 - - - - - - -
26/01:30pm 14.0 SSW 11 16 - - 0.4 - - - - - - -
26/01:00pm 13.8 SSW 14 22 - - 0.0 - - - - - - -
26/12:30pm 15.5 SSW 11 16 - - 0.0 - - - - - - -
26/12:00pm 16.7 S 5 8 - - 0.0 - - - - - - -
26/11:30am 15.9 W 9 14 - - 0.0 - - - - - - -
26/11:00am 16.5 W 9 16 - - 0.0 - - - - - - -
26/10:30am 16.4 W 6 11 - - 0.0 - - - - - - -
26/10:00am 15.3 W 6 10 - - 0.0 - - - - - - -
26/09:30am 14.9 W 8 11 - - 0.0 - - - - - - -
26/09:00am 14.7 W 6 10 - - 0.0 - - - - - - -
26/08:30am 14.0 W 4 6 - - 0.0 - - - - - - -
26/08:00am 13.0 W 6 9 - - 0.0 - - - - - - -
26/07:30am 12.0 WNW 7 10 - - 0.0 - - - - - - -
26/07:00am 11.2 NW 7 9 - - 0.0 - - - - - - -
26/06:30am 10.4 NW 8 10 - - 0.0 - - - - - - -
26/06:00am 9.8 NW 5 6 - - 0.0 - - - - - - -
26/05:30am 9.5 NW 5 6 - - 0.0 - - - - - - -
26/05:00am 8.8 NNW 4 5 - - 0.0 - - - - - - -
26/04:30am 9.6 NNW 4 5 - - 0.0 - - - - - - -
26/04:00am 10.1 WNW 4 6 - - 0.0 - - - - - - -
26/03:30am 9.0 NW 5 9 - - 0.0 - - - - - - -
26/03:00am 9.8 NW 5 7 - - 0.0 - - - - - - -
26/02:30am 10.2 NW 6 7 - - 0.0 - - - - - - -
26/02:00am 10.7 WNW 7 8 - - 0.0 - - - - - - -
26/01:30am 10.9 W 9 11 - - 0.0 - - - - - - -
26/01:00am 11.1 W 10 13 - - 0.0 - - - - - - -
26/12:30am 10.9 WNW 7 8 - - 0.0 - - - - - - -
26/12:00am 10.6 NW 6 7 - - 0.0 - - - - - - -
 
Date/Time
EDT
Temp

°C
Wind Pressure Rain
since 9am
mm
Weather Cloud Vis
km
Sea
Height
m
Swell
Dir
 
Speed
knots
Gust
knots
hPa Trend Height
m
Period
s
Dir
25/11:30pm 11.5 WNW 6 7 - - 0.0 - - - - - - -
25/11:00pm 11.4 W 7 10 - - 0.0 - - - - - - -
25/10:30pm 11.6 W 7 9 - - 0.0 - - - - - - -
25/10:00pm 11.9 W 6 8 - - 0.0 - - - - - - -
25/09:30pm 12.2 W 6 8 - - 0.0 - - - - - - -
25/09:00pm 12.8 WSW 9 14 - - 0.0 - - - - - - -
25/08:30pm 13.3 WSW 8 12 - - 0.0 - - - - - - -
25/08:00pm 14.2 WSW 13 21 - - 0.0 - - - - - - -

Other Formats:

Comma delimited format used in spreadsheet applications
http://www.bom.gov.au/fwo/IDV60701/IDV60701.94846.axf

JavaScript Object Notation format (JSON) in row-major order
http://www.bom.gov.au/fwo/IDV60701/IDV60701.94846.json